Location: Honolulu
(21.3069°N, 157.8583°W)
Time: 05:41:17
(UTC-10:00)

Tiangong - Pass Details

Date: 16 May 2026
Orbit: 380 x 392 km, 41.5° (Epoch: 11 June)

Event Time Altitude Azimuth Distance (km) Brightness Sun altitude
Rises 20:03:26 0° 217° (SW) 2,279 1.9 -13.6°
Reaches altitude 10° 20:05:35 10° 210° (SSW) 1,425 0.8 -14.1°
Maximum altitude 20:08:38 39° 139° (SE) 600 -1.7 -14.7°
Enters shadow 20:09:26 33° 102° (ESE) 690 -1.4 -14.9°
